Weather History for Dublin, VA

Change the Weather History Date:

Tuesday, January 14, 2014

  Actual Average (KBCB) Record (KBCB)
Temperature  
Mean Temperature 42 °F 31 °F  
Max Temperature 50 °F 41 °F 67 °F (2007)
Min Temperature 33 °F 21 °F -6 °F (1977)
Degree Days  
Heating Degree Days 24 34  
Month to date heating degree days 476  
Since 1 July heating degree days 2623  
Cooling Degree Days 0 0  
Month to date cooling degree days 0  
Year to date cooling degree days 0  
Moisture  
Dew Point 35 °F    
Average Humidity 81    
Maximum Humidity 100    
Minimum Humidity 46    
Precipitation  
Precipitation 0.07 in 0.11 in 1.22 in (1958)
Month to date precipitation 1.40  
Year to date precipitation 1.40  
Snow  
Snow 0.00 in - - ()
Month to date snowfall  
Since 1 July snowfall  
Snow Depth -    
Sea Level Pressure  
Sea Level Pressure 29.86 in    
Wind  
Wind Speed 3 mph (WSW)    
Max Wind Speed 15 mph    
Max Gust Speed 22 mph    
Visibility 9 miles    
Events Rain    
T = Trace of Precipitation, MM = Missing Value Source: NWS Daily Summary

Daily Weather History Graph

Daily Weather History Graph

Search for Another Location

Airport:

Trip Planner

Search our weather history database for the weather conditions in past years. The results will help you decide how hot, cold, wet, or windy it might be!

Date:

Astronomy

Jan. 14, 2014 Rise Set
Actual Time 7:35 AM EST 5:28 PM EST
Civil Twilight 7:07 AM EST 5:56 PM EST
Nautical Twilight 6:35 AM EST 6:28 PM EST
Astronomical Twilight 6:03 AM EST 7:00 PM EST
Moon 4:31 PM EST (1/14) 6:09 AM EST (1/14)
Length of Visible Light 10h 49m
Length of Day
9h 52m
Waxing Gibbous, 98% of the Moon is Illuminated
Jan 14
Waxing Gibbous
Jan 15
Full
Jan 24
Last Quarter
Jan 30
New
Feb 6
First Quarter

Hourly Weather History & Observations

Time (EST) Temp. Windchill Dew Point Humidity Pressure Visibility Wind Dir Wind Speed Gust Speed Precip Events Conditions
12:15 AM 42.8 °F - 37.4 °F 81% 29.88 in 10.0 mi Calm Calm - N/A   Light Drizzle
12:35 AM 42.8 °F - 37.4 °F 81% 29.87 in 10.0 mi Calm Calm - N/A   Overcast
12:55 AM 44.6 °F - 37.4 °F 76% 29.87 in 10.0 mi Calm Calm - N/A   Overcast
1:15 AM 42.8 °F 41.1 °F 37.4 °F 81% 29.86 in 10.0 mi SSW 3.5 mph - N/A   Overcast
1:35 AM 42.8 °F 41.1 °F 39.2 °F 87% 29.86 in 7.0 mi South 3.5 mph - N/A Rain Rain
1:55 AM 42.8 °F - 39.2 °F 87% 29.84 in 7.0 mi Calm Calm - N/A Rain Light Rain
2:15 AM 41.0 °F - 39.2 °F 93% 29.84 in 7.0 mi Calm Calm - N/A Rain Light Rain
2:35 AM 41.0 °F - 39.2 °F 93% 29.83 in 10.0 mi Calm Calm - N/A   Light Drizzle
2:55 AM 39.2 °F - 39.2 °F 100% 29.83 in 10.0 mi Calm Calm - 0.01 in Rain Rain
3:15 AM 39.2 °F - 39.2 °F 100% 29.82 in 7.0 mi Calm Calm - N/A Rain Light Rain
3:35 AM 39.2 °F - 39.2 °F 100% 29.82 in 10.0 mi Calm Calm - N/A   Overcast
3:55 AM 39.2 °F - 39.2 °F 100% 29.82 in 10.0 mi Calm Calm - N/A Rain Light Rain
4:15 AM 39.2 °F - 39.2 °F 100% 29.80 in 10.0 mi Calm Calm - N/A Rain Light Rain
4:35 AM 39.2 °F - 39.2 °F 100% 29.80 in 10.0 mi Calm Calm - N/A   Overcast
4:55 AM 39.2 °F - 39.2 °F 100% 29.79 in 10.0 mi Calm Calm - N/A   Overcast
5:15 AM 39.2 °F - 39.2 °F 100% 29.80 in 4.0 mi Calm Calm - N/A Rain Rain
5:35 AM 39.2 °F - 39.2 °F 100% 29.80 in 3.0 mi Calm Calm - 0.01 in Rain Rain
5:55 AM 39.2 °F - 39.2 °F 100% 29.79 in 3.0 mi Calm Calm - 0.01 in Rain Light Rain
6:15 AM 39.2 °F - 39.2 °F 100% 29.80 in 7.0 mi Calm Calm - N/A   Light Drizzle
6:35 AM 39.2 °F - 39.2 °F 100% 29.80 in 4.0 mi Calm Calm - N/A Rain Rain
6:55 AM 39.2 °F - 39.2 °F 100% 29.81 in - Calm Calm - 0.01 in   Overcast
7:15 AM 39.2 °F - 39.2 °F 100% 29.80 in - Calm Calm - N/A   Unknown
7:35 AM 39.2 °F - 39.2 °F 100% 29.79 in - Calm Calm - N/A   Unknown
7:55 AM 39.2 °F - 39.2 °F 100% 29.79 in 2.5 mi Calm Calm - N/A Rain Light Rain
8:15 AM 39.2 °F 37.0 °F 39.2 °F 100% 29.80 in 7.0 mi West 3.5 mph - N/A   Overcast
8:35 AM 39.2 °F 34.2 °F 39.2 °F 100% 29.82 in 5.0 mi WSW 6.9 mph - 0.01 in Rain Rain
8:55 AM 42.8 °F 39.3 °F 42.8 °F 100% 29.83 in 4.0 mi West 5.8 mph - 0.02 in Rain Rain
9:15 AM 42.8 °F 36.6 °F 42.8 °F 100% 29.85 in 5.0 mi WNW 11.5 mph 18.4 mph 0.02 in Rain Rain
9:35 AM 41.0 °F 34.3 °F 41.0 °F 100% 29.84 in 7.0 mi WNW 11.5 mph 21.9 mph 0.01 in Rain Light Rain
9:55 AM 41.0 °F 35.2 °F 39.2 °F 93% 29.88 in 10.0 mi WSW 9.2 mph - N/A   Overcast
10:15 AM 41.0 °F 34.7 °F 39.2 °F 93% 29.85 in 10.0 mi WNW 10.4 mph - N/A Rain Light Rain
10:35 AM 42.8 °F 38.6 °F 39.2 °F 87% 29.85 in 10.0 mi West 6.9 mph - N/A   Overcast
10:55 AM 42.8 °F 40.1 °F 39.2 °F 87% 29.85 in 10.0 mi West 4.6 mph - N/A   Mostly Cloudy
11:15 AM 42.8 °F 39.3 °F 39.2 °F 87% 29.85 in 10.0 mi WSW 5.8 mph - N/A Rain Light Rain
11:35 AM 44.6 °F 40.7 °F 39.2 °F 81% 29.84 in 10.0 mi West 6.9 mph - N/A   Mostly Cloudy
11:55 AM 44.6 °F 40.7 °F 39.2 °F 81% 29.82 in 10.0 mi West 6.9 mph - N/A   Mostly Cloudy
12:15 PM 44.6 °F 40.7 °F 39.2 °F 81% 29.80 in 10.0 mi West 6.9 mph - N/A   Overcast
12:35 PM 44.6 °F 39.7 °F 39.2 °F 81% 29.80 in 10.0 mi West 9.2 mph - N/A   Overcast
12:55 PM 44.6 °F 37.8 °F 39.2 °F 81% 29.81 in 10.0 mi West 15.0 mph 19.6 mph N/A   Overcast
1:15 PM 48.2 °F - 37.4 °F 66% 29.81 in 10.0 mi West 12.7 mph 20.7 mph N/A   Mostly Cloudy
1:35 PM 48.2 °F - 37.4 °F 66% 29.81 in 10.0 mi WNW 11.5 mph - N/A   Mostly Cloudy
1:55 PM 48.2 °F - 35.6 °F 62% 29.81 in 10.0 mi West 10.4 mph 16.1 mph N/A   Scattered Clouds
2:15 PM 48.2 °F - 33.8 °F 58% 29.83 in 10.0 mi West 15.0 mph 21.9 mph N/A   Scattered Clouds
2:35 PM 48.2 °F - 33.8 °F 58% 29.84 in 10.0 mi WNW 12.7 mph 19.6 mph N/A   Scattered Clouds
2:55 PM 50.0 °F - 30.2 °F 47% 29.84 in 10.0 mi West 13.8 mph - N/A   Scattered Clouds
3:15 PM 48.2 °F - 30.2 °F 50% 29.84 in 10.0 mi WNW 12.7 mph - N/A   Scattered Clouds
3:35 PM 48.2 °F - 30.2 °F 50% 29.85 in 10.0 mi West 11.5 mph 16.1 mph N/A   Clear
3:55 PM 48.2 °F - 30.2 °F 50% 29.85 in 10.0 mi West 9.2 mph - N/A   Clear
4:15 PM 48.2 °F - 28.4 °F 46% 29.86 in 10.0 mi WNW 11.5 mph - N/A   Clear
4:35 PM 46.4 °F 41.9 °F 28.4 °F 50% 29.86 in 10.0 mi West 9.2 mph - N/A   Clear
4:55 PM 46.4 °F 41.5 °F 26.6 °F 46% 29.87 in 10.0 mi West 10.4 mph - N/A   Clear
5:15 PM 44.6 °F 41.4 °F 26.6 °F 49% 29.87 in 10.0 mi West 5.8 mph - N/A   Clear
5:35 PM 42.8 °F - 28.4 °F 57% 29.88 in 10.0 mi Calm Calm - N/A   Clear
5:55 PM 42.8 °F 40.1 °F 26.6 °F 53% 29.89 in 10.0 mi WSW 4.6 mph - N/A   Clear
6:15 PM 39.2 °F 35.0 °F 28.4 °F 65% 29.89 in 10.0 mi WSW 5.8 mph - N/A   Clear
6:35 PM 41.0 °F 38.0 °F 28.4 °F 61% 29.90 in 10.0 mi West 4.6 mph - N/A   Clear
6:55 PM 37.4 °F 33.8 °F 28.4 °F 70% 29.90 in 10.0 mi SW 4.6 mph - N/A   Clear
7:15 PM 37.4 °F - 28.4 °F 70% 29.91 in 10.0 mi Calm Calm - N/A   Clear
7:35 PM 37.4 °F 32.8 °F 28.4 °F 70% 29.92 in 10.0 mi SW 5.8 mph - N/A   Clear
7:55 PM 35.6 °F 29.9 °F 28.4 °F 75% 29.92 in 10.0 mi SSW 6.9 mph - N/A   Clear
8:15 PM 35.6 °F 29.2 °F 30.2 °F 81% 29.93 in 10.0 mi SW 8.1 mph - N/A   Clear
8:35 PM 35.6 °F 31.7 °F 30.2 °F 81% 29.93 in 10.0 mi SW 4.6 mph - N/A   Clear
8:55 PM 35.6 °F 31.7 °F 30.2 °F 81% 29.94 in 10.0 mi SSW 4.6 mph - N/A   Clear
9:15 PM 35.6 °F 30.7 °F 30.2 °F 81% 29.95 in 10.0 mi SSW 5.8 mph - N/A   Clear
9:35 PM 35.6 °F 30.7 °F 30.2 °F 81% 29.95 in 10.0 mi WSW 5.8 mph - N/A   Clear
9:55 PM 33.8 °F - 28.4 °F 81% 29.95 in 10.0 mi Calm Calm - N/A   Clear
10:15 PM 33.8 °F 28.6 °F 30.2 °F 87% 29.95 in 10.0 mi WSW 5.8 mph - N/A   Clear
10:35 PM 35.6 °F 31.7 °F 30.2 °F 81% 29.94 in 10.0 mi West 4.6 mph - N/A   Clear
10:55 PM 33.8 °F 30.8 °F 30.2 °F 87% 29.94 in 10.0 mi SW 3.5 mph - N/A   Clear
11:15 PM 35.6 °F 32.8 °F 30.2 °F 81% 29.94 in 10.0 mi SSW 3.5 mph - N/A   Clear
11:35 PM 35.6 °F 32.8 °F 30.2 °F 81% 29.93 in 10.0 mi South 3.5 mph - N/A   Clear
11:55 PM 33.8 °F 28.6 °F 30.2 °F 87% 29.93 in 10.0 mi SW 5.8 mph - N/A   Clear